Regional Weather Roundup
Issued by NWS Cleveland, OH

Home | Current Version | Previous Version | Text Only | Print | Product List | Glossary Off
Versions: 1 2 3 4 5 6 7 8 9 10 11 12 13 14 15 16 17 18 19 20 21 22 23 24 25 26 27 28 29 30 31 32 33 34 35 36 37 38 39 40 41 42 43 44 45 46 47 48 49 50

000
ASUS41 KCLE 301510
RWRCLE
OHIO REGIONAL WEATHER ROUNDUP
NATIONAL WEATHER SERVICE CLEVELAND, OH
1100 AM EDT TUE SEP 30 2014

NOTE: "FAIR" INDICATES FEW OR NO CLOUDS BELOW 12,000 FEET WITH NO
SIGNIFICANT WEATHER AND/OR OBSTRUCTIONS TO VISIBILITY.

OHZ001>008-015>018-024>027-034-035-043-044-301600-
   NORTHWEST OHIO

CITY           SKY/WX    TMP DP  RH WIND       PRES   REMARKS
DEFIANCE       CLOUDY    54  46  74 N10       29.99S
FINDLAY        CLOUDY    55  50  83 N7        29.95S
TOLEDO EXPRESS CLOUDY    54  49  83 N8        29.97S
TOLEDO EXEC    CLOUDY    56  49  77 NW8       29.97S
LIMA           CLOUDY    55  53  93 N10       29.96S FOG
$$

OHZ009>014-019>023-028>033-038-089-301600-
   NORTHEAST OHIO

CITY           SKY/WX    TMP DP  RH WIND       PRES   REMARKS
CLE-HOPKINS    LGT RAIN  59  58  96 NW9       29.94S FOG
CLE-LAKEFRONT  CLOUDY    61  58  90 N13       29.91R
CUY CO. ARPT   CLOUDY    61  61 100 N9        29.92R FOG
LORAIN-ELYRIA  LGT RAIN  61  57  87 N9        29.93S FOG
ASHTABULA      CLOUDY    60  58  92 SE5       29.91F
AKRON-CANTON   CLOUDY    63  57  81 CALM      29.92S HAZE
WOOSTER        CLOUDY    60  58  92 SW3       29.93S FOG
MANSFIELD      RAIN      57  57 100 NW13      29.93R VSB 1/4
YOUNGSTOWN     HVY RAIN  58  56  93 S9        29.95R VSB 1
$$

OHZ042-051>053-060>062-070>072-077>081-301600-
  SOUTHWEST OHIO

CITY           SKY/WX    TMP DP  RH WIND       PRES   REMARKS
CINC-COVINGTON SUNNY     72  54  53 NW5       29.94F
CINC-LUNKEN    SUNNY     69  59  70 CALM      29.95S
HAMILTON       SUNNY     68  57  68 N7        29.96S
DAYTON         CLOUDY    63  59  87 NW7       29.96S FOG
WRIGHT-PAT AFB PTSUNNY   62  57  86 NW3       29.94F FOG
DAYTON GENERAL MOSUNNY   65  58  78 N8        29.95S HAZE
WILMINGTON     SUNNY     70  53  54 NW9       29.94S
$$

OHZ036-037-039>041-045>050-054>059-063>069-073>076-082>088-301600-
  CENTRAL AND SOUTHEAST OHIO

CITY           SKY/WX    TMP DP  RH WIND       PRES   REMARKS
COLUMBUS       PTSUNNY   63  53  70 CALM      29.92F
OSU AIRPORT    TSTM      62  57  83 W6        29.94S
BOLTON FIELD   CLOUDY    64  57  77 CALM      29.94S
RICKENBACK AFB RAIN      64  53  68 CALM      29.93S
NEWARK         LGT RAIN  61  55  81 CALM      29.92F
MARION         CLOUDY    58  56  93 N9        29.94S FOG
LANCASTER      PTSUNNY   67  52  58 CALM      29.93F
ZANESVILLE     PTSUNNY   63  53  70 NW8       29.94R THUNDER
NEW PHILLY     LGT RAIN  57  57 100 S3        29.93F FOG
$$



USA.gov is the U.S. government's official web portal to all federal, state and local government web resources and services.